Time,TemperatureF,DewpointF,PressureIn,WindDirection,WindDirectionDegrees,WindSpeedMPH,WindSpeedGustMPH,Humidity,HourlyPrecipIn,Conditions,Clouds,dailyrainin,SolarRadiationWatts/m^2,SoftwareType,DateUTC
2013-05-01 00:13:00,66.3,56.0,29.95,SE,143,0.0,-999.0,69,-99.99,,,0.00,0,weatherlink.com 1.10,2013-05-01 05:13:00,
2013-05-01 00:28:00,65.9,56.0,29.96,SE,143,0.0,-999.0,70,-99.99,,,0.00,0,weatherlink.com 1.10,2013-05-01 05:28:00,
2013-05-01 00:43:00,65.7,56.0,29.96,SE,143,0.0,-999.0,70,-99.99,,,0.00,0,weatherlink.com 1.10,2013-05-01 05:43:00,
2013-05-01 00:58:00,65.4,56.0,29.96,SE,143,0.0,-999.0,71,-99.99,,,0.00,0,weatherlink.com 1.10,2013-05-01 05:58:00,
2013-05-01 01:13:00,65.0,55.0,29.96,SE,143,0.0,-999.0,71,-99.99,,,0.00,0,weatherlink.com 1.10,2013-05-01 06:13:00,
2013-05-01 01:28:00,64.6,55.0,29.96,SE,143,0.0,-999.0,72,-99.99,,,0.00,0,weatherlink.com 1.10,2013-05-01 06:28:00,
2013-05-01 01:43:00,64.1,56.0,29.96,SE,143,0.0,-999.0,74,-99.99,,,0.00,0,weatherlink.com 1.10,2013-05-01 06:43:00,
2013-05-01 01:58:00,63.6,56.0,29.96,SE,143,0.0,-999.0,75,-99.99,,,0.00,0,weatherlink.com 1.10,2013-05-01 06:58:00,
2013-05-01 02:13:00,62.9,56.0,29.96,SE,143,0.0,-999.0,77,-99.99,,,0.00,0,weatherlink.com 1.10,2013-05-01 07:13:00,
2013-05-01 02:28:00,62.4,55.0,29.96,SE,143,0.0,-999.0,78,-99.99,,,0.00,0,weatherlink.com 1.10,2013-05-01 07:28:00,
2013-05-01 02:43:00,62.0,55.0,29.96,SE,143,0.0,-999.0,79,-99.99,,,0.00,0,weatherlink.com 1.10,2013-05-01 07:43:00,
2013-05-01 02:58:00,61.7,56.0,29.96,SE,143,0.0,-999.0,80,-99.99,,,0.00,0,weatherlink.com 1.10,2013-05-01 07:58:00,
2013-05-01 03:14:00,61.6,55.0,29.96,SE,143,0.0,-999.0,80,-99.99,,,0.00,0,weatherlink.com 1.10,2013-05-01 08:14:00,
2013-05-01 03:29:00,60.0,55.0,29.96,SE,143,0.0,-999.0,83,-99.99,,,0.00,0,weatherlink.com 1.10,2013-05-01 08:29:00,
2013-05-01 03:44:00,59.3,55.0,29.97,SE,143,0.0,-999.0,86,-99.99,,,0.00,0,weatherlink.com 1.10,2013-05-01 08:44:00,
2013-05-01 03:59:00,59.5,56.0,29.97,SE,143,0.0,-999.0,87,-99.99,,,0.00,0,weatherlink.com 1.10,2013-05-01 08:59:00,
2013-05-01 04:14:00,58.8,55.0,29.98,SE,143,0.0,-999.0,86,-99.99,,,0.00,0,weatherlink.com 1.10,2013-05-01 09:14:00,
2013-05-01 04:29:00,58.0,55.0,29.98,SE,143,0.0,-999.0,89,-99.99,,,0.00,0,weatherlink.com 1.10,2013-05-01 09:29:00,
2013-05-01 04:44:00,58.0,55.0,29.99,SE,143,0.0,-999.0,90,-99.99,,,0.00,0,weatherlink.com 1.10,2013-05-01 09:44:00,
2013-05-01 04:59:00,58.6,56.0,29.99,SE,143,0.0,-999.0,91,-99.99,,,0.00,0,weatherlink.com 1.10,2013-05-01 09:59:00,
2013-05-01 05:14:00,58.8,56.0,29.99,SE,143,0.0,-999.0,89,-99.99,,,0.00,0,weatherlink.com 1.10,2013-05-01 10:14:00,
2013-05-01 05:29:00,58.7,55.0,30.00,SE,143,0.0,-999.0,88,-99.99,,,0.00,0,weatherlink.com 1.10,2013-05-01 10:29:00,
2013-05-01 05:43:00,58.4,55.0,30.00,SE,143,0.0,-999.0,89,-99.99,,,0.00,0,weatherlink.com 1.10,2013-05-01 10:43:00,
2013-05-01 05:58:00,57.7,55.0,30.00,SE,143,0.0,-999.0,89,-99.99,,,0.00,0,weatherlink.com 1.10,2013-05-01 10:58:00,
2013-05-01 06:13:00,57.4,55.0,30.00,ESE,105,0.0,-999.0,90,-99.99,,,0.00,0,weatherlink.com 1.10,2013-05-01 11:13:00,
2013-05-01 06:29:00,57.2,55.0,30.01,ESE,107,0.0,-999.0,91,-99.99,,,0.00,7,weatherlink.com 1.10,2013-05-01 11:29:00,
2013-05-01 06:44:00,57.4,55.0,30.01,NE,49,0.0,-999.0,92,-99.99,,,0.00,14,weatherlink.com 1.10,2013-05-01 11:44:00,
2013-05-01 06:59:00,58.0,55.0,30.01,NE,49,0.0,-999.0,91,-99.99,,,0.00,19,weatherlink.com 1.10,2013-05-01 11:59:00,
2013-05-01 07:14:00,58.3,56.0,30.02,NE,49,0.0,-999.0,91,-99.99,,,0.00,40,weatherlink.com 1.10,2013-05-01 12:14:00,
2013-05-01 07:29:00,58.7,56.0,30.02,NE,49,0.0,-999.0,91,-99.99,,,0.00,98,weatherlink.com 1.10,2013-05-01 12:29:00,
2013-05-01 07:44:00,59.3,57.0,30.02,NE,49,0.0,-999.0,91,-99.99,,,0.00,118,weatherlink.com 1.10,2013-05-01 12:44:00,
2013-05-01 07:59:00,60.2,57.0,30.03,NE,49,0.0,-999.0,89,-99.99,,,0.00,155,weatherlink.com 1.10,2013-05-01 12:59:00,
2013-05-01 08:14:00,61.3,57.0,30.03,NE,49,0.0,-999.0,87,-99.99,,,0.00,172,weatherlink.com 1.10,2013-05-01 13:14:00,
2013-05-01 08:29:00,62.6,58.0,30.03,NE,49,0.0,-999.0,85,-99.99,,,0.00,271,weatherlink.com 1.10,2013-05-01 13:29:00,
2013-05-01 08:44:00,64.0,59.0,30.04,NE,49,0.0,-999.0,84,-99.99,,,0.00,366,weatherlink.com 1.10,2013-05-01 13:44:00,
2013-05-01 08:59:00,65.8,60.0,30.04,NE,49,0.0,-999.0,82,-99.99,,,0.00,461,weatherlink.com 1.10,2013-05-01 13:59:00,
2013-05-01 09:14:00,67.8,61.0,30.04,NE,49,0.0,-999.0,78,-99.99,,,0.00,397,weatherlink.com 1.10,2013-05-01 14:14:00,
2013-05-01 09:29:00,68.3,60.0,30.04,NE,49,0.0,-999.0,76,-99.99,,,0.00,234,weatherlink.com 1.10,2013-05-01 14:29:00,
2013-05-01 09:44:00,68.5,61.0,30.04,NE,48,0.0,-999.0,77,-99.99,,,0.00,244,weatherlink.com 1.10,2013-05-01 14:44:00,
2013-05-01 09:59:00,69.2,61.0,30.05,NE,48,0.0,-999.0,76,-99.99,,,0.00,244,weatherlink.com 1.10,2013-05-01 14:59:00,
2013-05-01 10:14:00,69.4,61.0,30.05,NE,48,0.0,-999.0,75,-99.99,,,0.00,357,weatherlink.com 1.10,2013-05-01 15:14:00,
2013-05-01 10:29:00,70.3,63.0,30.05,NE,48,0.0,-999.0,77,-99.99,,,0.00,545,weatherlink.com 1.10,2013-05-01 15:29:00,
2013-05-01 10:44:00,72.0,63.0,30.05,NE,39,0.0,-999.0,73,-99.99,,,0.00,696,weatherlink.com 1.10,2013-05-01 15:44:00,
2013-05-01 10:59:00,73.6,64.0,30.06,NE,39,0.0,-999.0,73,-99.99,,,0.00,731,weatherlink.com 1.10,2013-05-01 15:59:00,
2013-05-01 11:14:00,73.7,64.0,30.06,North,360,0.0,-999.0,72,-99.99,,,0.00,587,weatherlink.com 1.10,2013-05-01 16:14:00,
2013-05-01 11:29:00,75.8,64.0,30.06,NNE,12,1.0,-999.0,67,-99.99,,,0.00,671,weatherlink.com 1.10,2013-05-01 16:29:00,
2013-05-01 11:44:00,77.8,64.0,30.06,NNE,19,1.0,-999.0,62,-99.99,,,0.00,585,weatherlink.com 1.10,2013-05-01 16:44:00,
2013-05-01 11:59:00,78.8,64.0,30.06,ENE,58,3.0,-999.0,60,-99.99,,,0.00,926,weatherlink.com 1.10,2013-05-01 16:59:00,
2013-05-01 12:14:00,78.9,64.0,30.06,ENE,59,0.0,-999.0,61,-99.99,,,0.00,926,weatherlink.com 1.10,2013-05-01 17:14:00,
2013-05-01 12:29:00,79.1,64.0,30.06,ENE,69,0.0,-999.0,61,-99.99,,,0.00,942,weatherlink.com 1.10,2013-05-01 17:29:00,
2013-05-01 12:45:00,79.4,65.0,30.06,ENE,74,0.0,-999.0,62,-99.99,,,0.00,838,weatherlink.com 1.10,2013-05-01 17:45:00,
2013-05-01 13:00:00,80.2,64.0,30.06,East,81,0.0,-999.0,59,-99.99,,,0.00,318,weatherlink.com 1.10,2013-05-01 18:00:00,
2013-05-01 13:15:00,81.2,64.0,30.05,East,90,5.0,-999.0,57,-99.99,,,0.00,663,weatherlink.com 1.10,2013-05-01 18:15:00,
2013-05-01 13:30:00,81.3,64.0,30.05,ESE,114,1.0,-999.0,55,-99.99,,,0.00,916,weatherlink.com 1.10,2013-05-01 18:30:00,
2013-05-01 13:45:00,81.2,64.0,30.05,ESE,114,4.0,-999.0,56,-99.99,,,0.00,584,weatherlink.com 1.10,2013-05-01 18:45:00,
2013-05-01 14:00:00,81.6,64.0,30.05,SE,131,2.0,-999.0,56,-99.99,,,0.00,647,weatherlink.com 1.10,2013-05-01 19:00:00,
2013-05-01 14:15:00,80.8,64.0,30.05,SE,128,1.0,-999.0,57,-99.99,,,0.00,759,weatherlink.com 1.10,2013-05-01 19:15:00,
2013-05-01 14:30:00,81.0,65.0,30.05,SE,130,1.0,-999.0,58,-99.99,,,0.00,974,weatherlink.com 1.10,2013-05-01 19:30:00,
2013-05-01 14:45:00,81.4,64.0,30.05,SE,132,0.0,-999.0,56,-99.99,,,0.00,329,weatherlink.com 1.10,2013-05-01 19:45:00,
2013-05-01 15:00:00,82.1,65.0,30.04,SSE,159,1.0,-999.0,57,-99.99,,,0.00,821,weatherlink.com 1.10,2013-05-01 20:00:00,
2013-05-01 15:15:00,81.9,64.0,30.05,SE,136,0.0,-999.0,55,-99.99,,,0.00,761,weatherlink.com 1.10,2013-05-01 20:15:00,
2013-05-01 15:30:00,81.6,65.0,30.05,SSE,155,0.0,-999.0,57,-99.99,,,0.00,717,weatherlink.com 1.10,2013-05-01 20:30:00,
2013-05-01 15:45:00,82.0,66.0,30.04,SSE,165,0.0,-999.0,58,-99.99,,,0.00,643,weatherlink.com 1.10,2013-05-01 20:45:00,
2013-05-01 16:00:00,82.8,64.0,30.05,SSE,164,0.0,-999.0,54,-99.99,,,0.00,139,weatherlink.com 1.10,2013-05-01 21:00:00,
2013-05-01 16:15:00,79.4,64.0,30.05,SE,145,2.0,-999.0,59,-99.99,,,0.00,192,weatherlink.com 1.10,2013-05-01 21:15:00,
2013-05-01 16:30:00,78.6,65.0,30.04,SE,136,4.0,-999.0,63,-99.99,,,0.00,512,weatherlink.com 1.10,2013-05-01 21:30:00,
2013-05-01 16:45:00,78.7,64.0,30.05,SE,140,1.0,-999.0,60,-99.99,,,0.00,450,weatherlink.com 1.10,2013-05-01 21:45:00,
2013-05-01 17:00:00,78.7,65.0,30.05,SSE,162,6.0,-999.0,62,-99.99,,,0.00,436,weatherlink.com 1.10,2013-05-01 22:00:00,
2013-05-01 17:15:00,79.2,65.0,30.05,SSE,166,0.0,-999.0,62,-99.99,,,0.00,253,weatherlink.com 1.10,2013-05-01 22:15:00,
2013-05-01 17:30:00,79.1,65.0,30.05,SSE,166,0.0,-999.0,62,-99.99,,,0.00,162,weatherlink.com 1.10,2013-05-01 22:30:00,
2013-05-01 17:45:00,78.3,65.0,30.05,SSE,162,0.0,-999.0,63,-99.99,,,0.00,139,weatherlink.com 1.10,2013-05-01 22:45:00,
2013-05-01 18:00:00,77.4,64.0,30.05,SW,225,0.0,-999.0,64,-99.99,,,0.00,127,weatherlink.com 1.10,2013-05-01 23:00:00,
2013-05-01 18:15:00,76.8,64.0,30.05,SW,225,0.0,-999.0,64,-99.99,,,0.00,72,weatherlink.com 1.10,2013-05-01 23:15:00,
2013-05-01 18:30:00,75.8,63.0,30.05,SSW,212,0.0,-999.0,64,-99.99,,,0.00,58,weatherlink.com 1.10,2013-05-01 23:30:00,
2013-05-01 18:45:00,75.0,62.0,30.05,SSW,212,0.0,-999.0,65,-99.99,,,0.00,46,weatherlink.com 1.10,2013-05-01 23:45:00,
2013-05-01 19:00:00,74.3,63.0,30.05,SE,125,0.0,-999.0,68,-99.99,,,0.00,37,weatherlink.com 1.10,2013-05-02 00:00:00,
2013-05-01 19:15:00,73.5,63.0,30.06,SE,125,0.0,-999.0,69,-99.99,,,0.00,32,weatherlink.com 1.10,2013-05-02 00:15:00,
2013-05-01 19:30:00,72.8,62.0,30.06,SE,125,0.0,-999.0,70,-99.99,,,0.00,32,weatherlink.com 1.10,2013-05-02 00:30:00,
2013-05-01 19:45:00,72.3,62.0,30.06,ESE,105,0.0,-999.0,71,-99.99,,,0.00,16,weatherlink.com 1.10,2013-05-02 00:45:00,
2013-05-01 20:00:00,71.7,63.0,30.06,ESE,106,0.0,-999.0,73,-99.99,,,0.00,0,weatherlink.com 1.10,2013-05-02 01:00:00,
2013-05-01 20:15:00,71.2,63.0,30.06,ESE,106,0.0,-999.0,74,-99.99,,,0.00,0,weatherlink.com 1.10,2013-05-02 01:15:00,
2013-05-01 20:30:00,70.7,62.0,30.06,ESE,106,0.0,-999.0,75,-99.99,,,0.00,0,weatherlink.com 1.10,2013-05-02 01:30:00,
2013-05-01 20:45:00,70.1,62.0,30.07,ESE,106,0.0,-999.0,76,-99.99,,,0.00,0,weatherlink.com 1.10,2013-05-02 01:45:00,
2013-05-01 21:00:00,69.7,62.0,30.07,ESE,106,0.0,-999.0,77,-99.99,,,0.00,0,weatherlink.com 1.10,2013-05-02 02:00:00,
2013-05-01 21:15:00,69.4,62.0,30.07,ESE,107,0.0,-999.0,78,-99.99,,,0.00,0,weatherlink.com 1.10,2013-05-02 02:15:00,
2013-05-01 21:30:00,69.1,62.0,30.08,ESE,107,0.0,-999.0,78,-99.99,,,0.00,0,weatherlink.com 1.10,2013-05-02 02:30:00,
2013-05-01 21:45:00,68.6,62.0,30.08,ESE,107,0.0,-999.0,79,-99.99,,,0.00,0,weatherlink.com 1.10,2013-05-02 02:45:00,
2013-05-01 22:00:00,68.3,62.0,30.09,ESE,107,1.0,-999.0,80,-99.99,,,0.00,0,weatherlink.com 1.10,2013-05-02 03:00:00,
2013-05-01 22:15:00,68.1,62.0,30.09,ESE,107,0.0,-999.0,80,-99.99,,,0.00,0,weatherlink.com 1.10,2013-05-02 03:15:00,
2013-05-01 22:30:00,68.0,62.0,30.09,ESE,107,0.0,-999.0,81,-99.99,,,0.00,0,weatherlink.com 1.10,2013-05-02 03:30:00,
2013-05-01 22:45:00,67.2,62.0,30.10,ESE,107,0.0,-999.0,83,-99.99,,,0.00,0,weatherlink.com 1.10,2013-05-02 03:45:00,
2013-05-01 23:00:00,66.8,62.0,30.11,ESE,107,0.0,-999.0,84,-99.99,,,0.00,0,weatherlink.com 1.10,2013-05-02 04:00:00,
2013-05-01 23:15:00,66.7,62.0,30.11,ESE,107,0.0,-999.0,84,-99.99,,,0.00,0,weatherlink.com 1.10,2013-05-02 04:15:00,
2013-05-01 23:30:00,66.1,62.0,30.11,ESE,107,0.0,-999.0,85,-99.99,,,0.00,0,weatherlink.com 1.10,2013-05-02 04:30:00,
2013-05-01 23:45:00,65.4,61.0,30.11,ESE,107,0.0,-999.0,86,-99.99,,,0.00,0,weatherlink.com 1.10,2013-05-02 04:45:00,